Location: Newport
(44.6370°N, 124.0520°W)
Time: 00:37:07
(UTC-07:00)

Envisat - Pass Details

Date: 11 October 2017
Orbit: 764 x 766 km, 98.2° (Epoch: 17 October)

Event Time Altitude Azimuth Distance (km) Brightness Sun altitude
Exits shadow 22:31:22 14° 274° (W) 2,018 5.6 -40.4°
Drops below altitude 10° 22:33:50 10° 304° (NW) 2,308 6.1 -40.8°
Sets 22:37:17 0° 328° (NNW) 3,241 7.0 -41.3°
